Showing default

LEMUR 2 SQUIRRELCOMM, 60578

Orbit data source: Space-Track

LEMUR 2 SQUIRRELCOMM, 60578 is an American payload satellite in SSO that was launched on Fri, 16 Aug 2024 UTC via an FALCON 9 launch vehicle from the Air Force Western Test Range (AFWTR). Payload-class satellites include a variety of spacecraft equipped with specific instruments for various scientific and technological missions. These include communications satellites like Starlink; space stations such as the ISS; scientific satellites like the Hubble; Earth observation satellites from companies like Planet Labs, Umbra, and HawkEye 360; GPS; miniature CubeSats for education and research; and military/defense satellites.

Loading next visibility...
Identifier
60578, 2024-149DQ
Orbit
SSO
Country
Flag of USUS
Related business
Manufacturer
Spire/Glasgow
Mission
Operational Commercial Com/MetRO
Bus & Motor
CUBESAT 3U, Unknown motor
Mass
7.6 kg wet, 7.6 kg dry
Launch date (UTC)
2024-08-16 (2 years ago)
Launch vehicle
FALCON 9
Launch site
Air Force Western Test Range (AFWTR)
Object type
Payload
Rocket body
Debris
Shape & HBR
Box + 2 Pan, 0.5 m
Radar Cross Section
0.063 m², Medium (>0.1 m² and < 1m²)

Expand to show TLE details & history
Last TLE update: 8 hours ago

TLE from 8 hours ago
0 LEMUR 2 SQUIRRELCOMM
1 60578U 24149DQ  26126.75335238  .00005556  00000-0  37832-3 0  9996
2 60578  97.6711 207.8119 0005733 176.0128 184.1146 15.06679345 94161
Epoch: 2026-05-06T18:04Z
TLE epoch observation values (Epoch: 2026-05-06T18:04:49.645Z)
Latitude
-0.00001°
Longitude
71.99573°
Altitude
553.381 km
Speed
7.583 km/s
True Right ascension
13h 51m 14s
True Declination
0° 00' 00"
Sunlit
Object was in full shadow at epoch
Visualization orbit readout
Latitude
Unknown
Longitude
Unknown
Altitude
Unknown
Speed
Unknown
Apparent Right ascension
Unknown
Apparent Declination
Unknown
Sunlit
N/A
Visualization observer readout
Local Sidereal Time
10:27:42
Azimuth
Unknown
Elevation
Unknown
Doppler factor
Unknown
Orbital elements
Apogee altitude
547.319 km
Perigee altitude
539.383 km
Semi-major axis
6,921.488 km
Eccentricity
0.00057
Inclination
97.6711°
RAAN
207.8119°
Arg. of periapsis
176.0128°
True anomaly
184.10989°
Mean anomaly
184.1146°
Eccentric anomaly
184.11224°
Mean motion
3.76916 °/min
Orbital period
95.51 mins
BSTAR
0.00037832
Loading maneuver chart data...
Computing Atmospheric mass density...
Loading historical data...
Loading historical data...
Loading historical data...
Loading historical data...
Loading historical data...
Loading historical data...
Loading historical data...

Documentation

Showing up to 5 results
|